Lacon, IL

1:16 PM CST on December 14, 2019 (GMT -0600)
Lacon

Weather History for KC75 - October, 2019

Change the Weather History Date:

Friday, October 4, 2019

  Actual Average (KVYS) Record (KVYS)
Temperature  
Mean Temperature 52 °F -  
Max Temperature 63 °F 71 °F 89 °F (2005)
Min Temperature 43 °F 44 °F 27 °F (1989)
Degree Days  
Heating Degree Days 12    
Growing Degree Days 2 (Base 50)    
Moisture  
Dew Point 46 °F    
Average Humidity 81    
Maximum Humidity 96    
Minimum Humidity 59    
Precipitation  
Precipitation 0.00 in - - ()
Sea Level Pressure  
Sea Level Pressure 30.34 in    
Wind  
Wind Speed 4 mph (NE)    
Max Wind Speed 10 mph    
Max Gust Speed -    
Visibility 8 miles    
Events Rain    
Averages and records for this station are not official NWS values.
T = Trace of Precipitation, MM = Missing Value Source: NWS Daily Summary

Daily Weather History Graph

Daily Weather History Graph

Search for Another Location

Airport or City:

Astronomy

Oct. 04, 2019 Rise Set
Actual Time 6:56 AM CDT 6:34 PM CDT
Civil Twilight 6:29 AM CDT 7:02 PM CDT
Nautical Twilight 5:57 AM CDT 7:33 PM CDT
Astronomical Twilight 5:25 AM CDT 8:05 PM CDT
Moon 1:31 PM CDT (10/4) 11:00 PM CDT (10/4)
Length of Visible Light 12h 32m
Length of Day
11h 37m
Waxing Crescent, 40% of the Moon is Illuminated
Oct 4
Waxing Crescent
Oct 5
First Quarter
Oct 13
Full
Oct 21
Last Quarter
Oct 27
New

Hourly Weather History & Observations

Time (CDT) Temp. Windchill Dew Point Humidity Pressure Visibility Wind Dir Wind Speed Gust Speed Precip Events Conditions
12:15 AM 47.5 °F - 45.1 °F 92% 30.30 in 10.0 mi Calm Calm - N/A   Clear
12:35 AM 47.3 °F - 45.5 °F 93% 30.31 in 10.0 mi Calm Calm - N/A   Clear
12:55 AM 47.3 °F - 45.0 °F 92% 30.31 in 10.0 mi NNW 4.6 mph - N/A   Clear
1:15 AM 47.1 °F - 44.8 °F 92% 30.32 in 10.0 mi NNW 4.6 mph - N/A   Clear
1:35 AM 46.9 °F - 44.6 °F 92% 30.32 in 10.0 mi NNW 3.5 mph - N/A   Clear
1:55 AM 46.8 °F - 44.6 °F 92% 30.32 in 10.0 mi NNW 4.6 mph - N/A   Clear
2:15 AM 46.6 °F - 44.2 °F 92% 30.32 in 10.0 mi NNW 4.6 mph - N/A   Clear
2:35 AM 46.6 °F - 44.1 °F 91% 30.32 in 10.0 mi North 5.8 mph - N/A   Clear
2:55 AM 46.4 °F 44.3 °F 43.9 °F 91% 30.32 in 10.0 mi North 4.6 mph - N/A   Clear
3:10 AM 46.0 °F 43.9 °F 43.7 °F 92% 30.32 in 10.0 mi North 4.6 mph - N/A   Clear
3:35 AM 45.9 °F 43.6 °F 43.3 °F 91% 30.32 in 10.0 mi North 4.6 mph - N/A   Clear
3:55 AM 45.5 °F 42.5 °F 43.2 °F 92% 30.33 in 10.0 mi North 5.8 mph - N/A   Clear
4:15 AM 45.5 °F 43.2 °F 43.2 °F 92% 30.33 in 10.0 mi North 4.6 mph - N/A   Clear
4:35 AM 45.5 °F 44.2 °F 43.0 °F 91% 30.33 in 10.0 mi North 3.5 mph - N/A   Clear
4:55 AM 45.1 °F 43.7 °F 42.8 °F 91% 30.34 in 10.0 mi North 3.5 mph - N/A   Clear
5:15 AM 45.0 °F 42.6 °F 42.4 °F 91% 30.35 in 10.0 mi North 4.6 mph - N/A   Clear
5:35 AM 44.6 °F - 42.3 °F 91% 30.35 in 10.0 mi Calm Calm - N/A   Clear
5:50 AM 44.6 °F - 42.1 °F 91% 30.36 in 10.0 mi Calm Calm - N/A   Clear
6:15 AM 43.7 °F - 41.9 °F 93% 30.36 in 10.0 mi Calm Calm - N/A   Clear
6:35 AM 43.3 °F - 41.9 °F 95% 30.37 in 10.0 mi Calm Calm - N/A   Clear
6:55 AM 43.0 °F - 41.7 °F 95% 30.38 in 10.0 mi Calm Calm - N/A   Clear
7:15 AM 43.0 °F - 41.9 °F 96% 30.38 in 10.0 mi Calm Calm - N/A   Clear
7:35 AM 43.7 °F - 42.4 °F 95% 30.38 in 10.0 mi Calm Calm - N/A   Clear
7:55 AM 45.5 °F 44.2 °F 43.2 °F 92% 30.39 in 10.0 mi North 3.5 mph - N/A   Clear
8:15 AM 46.9 °F - 43.9 °F 89% 30.39 in 10.0 mi North 4.6 mph - N/A   Clear
8:35 AM 48.6 °F - 43.9 °F 84% 30.39 in 10.0 mi NNE 6.9 mph - N/A   Clear
8:55 AM 49.6 °F - 44.4 °F 82% 30.40 in 10.0 mi North 4.6 mph - N/A   Clear
9:15 AM 49.5 °F - 44.4 °F 83% 30.40 in 10.0 mi NNE 3.5 mph - N/A   Clear
9:35 AM 50.2 °F - 44.6 °F 81% 30.40 in 10.0 mi North 5.8 mph - N/A   Clear
9:55 AM 51.4 °F - 45.3 °F 80% 30.40 in 10.0 mi NNE 3.5 mph - N/A   Clear
10:15 AM 53.4 °F - 46.4 °F 77% 30.41 in 10.0 mi ENE 4.6 mph - N/A   Scattered Clouds
10:35 AM 55.0 °F - 46.6 °F 73% 30.41 in 10.0 mi NNE 3.5 mph - N/A   Clear
10:55 AM 56.3 °F - 47.1 °F 71% 30.39 in 10.0 mi ENE 4.6 mph - N/A   Scattered Clouds
11:15 AM 56.8 °F - 46.4 °F 68% 30.39 in 10.0 mi NE 3.5 mph - N/A   Clear
11:35 AM 58.3 °F - 47.1 °F 66% 30.39 in 10.0 mi NNE 3.5 mph - N/A   Scattered Clouds
11:55 AM 58.6 °F - 46.6 °F 64% 30.38 in 10.0 mi East 5.8 mph - N/A   Mostly Cloudy
12:15 PM 59.7 °F - 48.0 °F 65% 30.37 in 10.0 mi ENE 6.9 mph - N/A   Overcast
12:35 PM 60.6 °F - 47.7 °F 62% 30.36 in 10.0 mi Calm Calm - N/A   Mostly Cloudy
12:55 PM 60.1 °F - 48.4 °F 65% 30.36 in 10.0 mi ENE 8.1 mph - N/A   Mostly Cloudy
1:15 PM 60.3 °F - 47.7 °F 63% 30.36 in 10.0 mi NE 3.5 mph - N/A   Mostly Cloudy
1:35 PM 59.9 °F - 48.6 °F 66% 30.36 in 10.0 mi NE 8.1 mph - N/A   Overcast
1:55 PM 60.3 °F - 49.1 °F 67% 30.35 in 10.0 mi NE 5.8 mph - N/A   Overcast
2:15 PM 60.8 °F - 49.1 °F 65% 30.33 in 10.0 mi ENE 6.9 mph - N/A   Overcast
2:35 PM 60.8 °F - 48.6 °F 64% 30.33 in 10.0 mi NE 5.8 mph - N/A   Overcast
2:55 PM 60.4 °F - 48.6 °F 65% 30.32 in 1.5 mi ENE 6.9 mph - N/A   Haze
3:15 PM 60.3 °F - 48.6 °F 65% 30.32 in 1.2 mi ENE 5.8 mph - N/A   Haze
3:35 PM 61.7 °F - 48.6 °F 62% 30.32 in 5.0 mi ENE 8.1 mph - N/A   Haze
3:55 PM 61.3 °F - 47.3 °F 60% 30.31 in 3.0 mi ENE 6.9 mph - N/A   Haze
4:15 PM 62.8 °F - 49.3 °F 61% 30.31 in 5.0 mi ENE 9.2 mph - N/A   Haze
4:35 PM 62.6 °F - 48.0 °F 59% 30.30 in 0.5 mi ENE 9.2 mph - N/A   Haze
4:55 PM 61.0 °F - 48.0 °F 62% 30.30 in 1.0 mi ENE 10.4 mph - N/A   Haze
5:15 PM 60.1 °F - 48.4 °F 65% 30.31 in 1.2 mi ENE 6.9 mph - N/A   Haze
5:35 PM 59.4 °F - 48.7 °F 68% 30.31 in 1.0 mi ENE 6.9 mph - N/A   Drizzle
5:55 PM 58.3 °F - 48.2 °F 69% 30.31 in 1.0 mi ENE 8.1 mph - N/A Rain Light Rain
6:15 PM 57.4 °F - 48.4 °F 72% 30.31 in 2.5 mi ENE 4.6 mph - N/A   Haze
6:35 PM 56.3 °F - 49.1 °F 77% 30.31 in 4.0 mi ENE 5.8 mph - N/A   Haze
6:55 PM 55.8 °F - 48.7 °F 77% 30.31 in 4.0 mi ENE 6.9 mph - N/A   Haze
7:15 PM 54.5 °F - 48.6 °F 80% 30.31 in 4.0 mi ENE 6.9 mph - N/A   Haze
7:35 PM 53.2 °F - 48.4 °F 84% 30.30 in 7.0 mi East 6.9 mph - N/A   Clear
7:55 PM 52.9 °F - 47.8 °F 83% 30.29 in 7.0 mi East 6.9 mph - N/A   Clear
8:15 PM 52.3 °F - 47.7 °F 84% 30.30 in 5.0 mi East 6.9 mph - N/A   Clear
8:35 PM 51.4 °F - 47.3 °F 86% 30.31 in 5.0 mi East 5.8 mph - N/A   Haze
8:55 PM 51.1 °F - 47.3 °F 87% 30.30 in 3.0 mi East 6.9 mph - N/A   Clear
9:15 PM 50.9 °F - 47.3 °F 87% 30.30 in 2.5 mi East 8.1 mph - N/A   Clear
9:35 PM 50.5 °F - 47.3 °F 89% 30.29 in 3.0 mi East 6.9 mph - N/A   Clear
9:55 PM 50.2 °F - 47.3 °F 90% 30.29 in 7.0 mi ENE 5.8 mph - N/A   Clear
10:15 PM 50.0 °F - 46.9 °F 89% 30.29 in 7.0 mi East 5.8 mph - N/A   Clear
10:35 PM 49.5 °F - 46.8 °F 90% 30.29 in 10.0 mi East 4.6 mph - N/A   Clear
10:55 PM 49.5 °F - 46.8 °F 90% 30.29 in 10.0 mi ENE 3.5 mph - N/A   Clear
11:15 PM 49.1 °F - 46.8 °F 92% 30.28 in 10.0 mi ENE 3.5 mph - N/A   Clear
11:35 PM 49.1 °F - 46.8 °F 92% 30.28 in 10.0 mi ENE 3.5 mph - N/A   Clear
11:55 PM 48.2 °F - 46.4 °F 93% 30.27 in 10.0 mi East 3.5 mph - N/A   Clear